Weather reports worldwide

Advertisment
Ponferrada, Spain (8053): temperature & dewpoint: 14.01.2021 14:00:00 - 20.01.2021 14:00:00 (CET)Ponferrada, Spain (8053): wind speed: 14.01.2021 14:00:00 - 20.01.2021 14:00:00 (CET)Ponferrada, Spain (8053): wind direction: 14.01.2021 14:00:00 - 20.01.2021 14:00:00 (CET)Ponferrada, Spain (8053): reduced air pressure: 14.01.2021 14:00:00 - 20.01.2021 14:00:00 (CET)Ponferrada, Spain (8053): visibility: 14.01.2021 14:00:00 - 20.01.2021 14:00:00 (CET)Ponferrada, Spain (8053): precipitation: 14.01.2021 14:00:00 - 20.01.2021 14:00:00 (CET)
Date & Time tt [°C] td [°C] ff [km/h] ff [kn] dd ppp [hPa] vv [km] rr [mm]
20.01.2021 14:00:00 8,9 6,9 4 2 ENE 1001,0 20 1,0
20.01.2021 13:00:00 8,4 7,0 4 2 E 1001,6 12 -
20.01.2021 12:00:00 8,7 5,4 4 2 E 1001,5 18 0,2
20.01.2021 11:00:00 8,1 5,0 9 5 ESE 1001,9 20 0,0
20.01.2021 10:00:00 4,6 3,9 4 2 SSE 1003,7 10 -
20.01.2021 09:00:00 4,5 3,3 4 2 NW 1003,8 13 0,0
20.01.2021 08:00:00 5,9 3,2 9 5 W 1004,3 20 0,0
20.01.2021 07:00:00 6,4 3,7 4 2 NE 1004,7 20 -
20.01.2021 06:00:00 5,4 3,6 8 4 WNW 1006,1 20 0,0
20.01.2021 05:00:00 5,4 2,6 5 3 NNE 1007,2 16 0,0
20.01.2021 04:00:00 4,1 1,5 5 3 WNW 1008,6 17 -
20.01.2021 03:00:00 3,3 0,9 4 2 NNE 1009,5 17 0,0
20.01.2021 02:00:00 1,9 0,3 4 2 NE 1011,7 13 0,0
20.01.2021 01:00:00 1,5 0,0 4 2 NNE 1013,5 10 -
20.01.2021 00:00:00 1,8 0,2 2 1 SSE 1014,8 11 0,0
19.01.2021 23:00:00 2,1 0,2 4 2 SE 1015,8 10 0,0
19.01.2021 22:00:00 2,4 0,3 5 3 SW 1016,2 11 -
19.01.2021 21:00:00 4,0 0,1 5 3 S 1016,7 19 0,0
19.01.2021 20:00:00 3,4 0,8 4 2 SSE 1017,7 9 0,0
19.01.2021 19:00:00 4,6 0,4 16 9 E 1017,6 20 -
19.01.2021 18:00:00 2,7 1,4 4 2 ESE 1019,1 - 0,0
19.01.2021 17:00:00 3,9 1,6 5 3 W 1018,6 9 0,0
19.01.2021 16:00:00 3,3 1,3 4 2 WNW 1019,9 8 -
19.01.2021 15:00:00 2,3 1,1 2 1 SSW 1021,1 6 0,0
19.01.2021 14:00:00 1,2 0,8 4 2 W 1022,6 3,7 0,0
19.01.2021 13:00:00 -0,1 -0,1 4 2 SSE 1024,3 1,3 -
19.01.2021 12:00:00 -1,1 -1,1 2 1 SSW 1025,8 0,3 0,0
19.01.2021 11:00:00 -1,8 -1,8 2 1 N 1026,1 0,3 0,0
19.01.2021 10:00:00 -1,9 -2,0 2 1 NNW 1026,4 0,1 -
19.01.2021 09:00:00 -2,3 -2,4 2 1 SSE 1026,9 0,1 0,0
19.01.2021 08:00:00 -2,6 -2,7 2 1 NNW 1026,9 0,4 0,0
19.01.2021 07:00:00 -2,1 -2,2 4 2 SE 1027,1 0,2 -
19.01.2021 06:00:00 -2,2 -2,5 4 2 NW 1027,7 0,1 0,0
19.01.2021 05:00:00 -2,1 -2,4 2 1 NNE 1028,0 0,2 0,0
19.01.2021 04:00:00 -1,5 -1,8 2 1 NW 1028,2 0,1 -
19.01.2021 03:00:00 -1,3 -1,7 2 1 NNW 1028,3 8 0,0
19.01.2021 02:00:00 -1,4 -2,0 2 1 NW 1029,1 8 0,0
19.01.2021 01:00:00 -1,1 -1,8 2 1 ENE 1029,5 7 -
19.01.2021 00:00:00 -0,6 -1,3 2 1 E 1029,4 9 0,0
18.01.2021 23:00:00 -0,1 -1,1 2 1 E 1029,3 6 0,0
18.01.2021 22:00:00 0,8 -0,4 2 1 SSE 1028,9 7 -
18.01.2021 21:00:00 2,1 0,9 4 2 NNW 1028,7 7 0,0
18.01.2021 20:00:00 2,9 0,8 4 2 ESE 1028,3 8 0,0
18.01.2021 19:00:00 5,2 1,9 0 0 N 1027,4 9 -
18.01.2021 18:00:00 8,5 2,9 4 2 W 1026,5 15 0,0
18.01.2021 17:00:00 9,1 3,5 4 2 W 1026,4 20 0,0
18.01.2021 16:00:00 7,4 2,9 4 2 W 1027,4 12 -
18.01.2021 15:00:00 4,6 2,0 5 3 W 1028,8 7 0,0
18.01.2021 14:00:00 2,4 1,2 5 3 NW 1030,4 2,2 0,0
18.01.2021 13:00:00 0,6 0,5 2 1 WSW 1032,2 0,5 -
18.01.2021 12:00:00 -0,3 -0,4 4 2 WNW 1033,3 0,2 0,0
18.01.2021 11:00:00 -1,0 -1,1 2 1 SW 1033,5 0,1 0,0
18.01.2021 10:00:00 -1,8 -1,9 4 2 NNW 1033,4 3,2 -
18.01.2021 09:00:00 -1,7 -1,8 4 2 ESE 1033,3 0,2 0,0
18.01.2021 08:00:00 -2,2 -2,6 2 1 NNW 1033,3 12 0,0
18.01.2021 07:00:00 -2,2 -2,9 2 1 SE 1033,2 12 -
18.01.2021 06:00:00 -2,0 -2,7 0 0 N 1033,0 18 0,0
18.01.2021 05:00:00 -1,7 -2,4 0 0 N 1033,0 12 0,0
18.01.2021 04:00:00 -1,2 -2,2 2 1 SSW 1033,1 19 -
18.01.2021 03:00:00 -1,0 -1,8 2 1 E 1033,3 18 0,0
18.01.2021 02:00:00 -0,3 -1,4 4 2 ESE 1033,1 19 0,0
18.01.2021 01:00:00 0,2 -0,7 2 1 N 1033,0 20 -
18.01.2021 00:00:00 0,6 -1,2 4 2 ESE 1033,5 18 0,0
17.01.2021 23:00:00 1,2 -0,7 2 1 SE 1033,1 18 0,0
17.01.2021 22:00:00 2,0 -0,8 2 1 N 1032,8 18 -
17.01.2021 21:00:00 2,9 -0,6 2 1 S 1032,6 20 0,0
17.01.2021 20:00:00 4,4 -0,2 2 1 ENE 1032,2 18 0,0
17.01.2021 19:00:00 7,3 0,0 2 1 ESE 1031,4 18 -
17.01.2021 18:00:00 10,7 0,1 2 1 SW 1030,2 19 0,0
17.01.2021 17:00:00 11,1 -0,1 4 2 W 1029,9 18 0,0
17.01.2021 16:00:00 9,9 -0,6 4 2 WNW 1030,4 20 -
17.01.2021 15:00:00 9,2 -1,0 5 3 W 1031,0 20 0,0
17.01.2021 14:00:00 7,1 -1,1 4 2 SW 1032,7 20 0,0
17.01.2021 13:00:00 4,2 -1,6 4 2 SW 1034,6 19 -
17.01.2021 12:00:00 1,8 -2,0 4 2 W 1036,2 18 0,0
17.01.2021 11:00:00 -0,3 -3,0 4 2 WNW 1036,7 19 0,0
17.01.2021 10:00:00 -2,4 -4,0 0 0 N 1036,9 16 -
17.01.2021 09:00:00 -4,4 -5,2 2 1 N 1036,5 19 0,0
17.01.2021 08:00:00 -4,4 -5,5 0 0 N 1036,2 20 0,0
17.01.2021 07:00:00 -4,1 -5,2 2 1 E 1035,9 20 -
17.01.2021 06:00:00 -3,7 -5,0 2 1 ESE 1035,8 19 0,0
17.01.2021 05:00:00 -3,4 -4,5 0 0 N 1035,8 19 0,0
17.01.2021 04:00:00 -3,1 -4,7 4 2 W 1035,9 19 -
17.01.2021 03:00:00 -3,0 -4,3 2 1 E 1035,7 18 0,0
17.01.2021 02:00:00 -2,6 -4,2 4 2 ESE 1035,9 20 0,0
17.01.2021 01:00:00 -2,3 -3,7 4 2 E 1035,9 20 -
17.01.2021 00:00:00 -1,6 -3,2 2 1 WNW 1035,8 14 0,0
16.01.2021 23:00:00 -1,1 -3,1 2 1 SSE 1035,4 14 0,0
16.01.2021 22:00:00 -1,3 -3,3 4 2 ESE 1035,2 13 -
16.01.2021 21:00:00 -0,3 -2,8 2 1 E 1034,6 19 0,0
16.01.2021 20:00:00 1,2 -2,2 2 1 E 1033,7 17 0,0
16.01.2021 19:00:00 3,5 -1,3 2 1 E 1032,5 16 -
16.01.2021 18:00:00 7,9 -0,1 2 1 NW 1031,1 16 0,0
16.01.2021 17:00:00 9,3 0,2 4 2 W 1030,5 20 0,0
16.01.2021 16:00:00 7,7 -0,1 4 2 W 1031,1 20 -
16.01.2021 15:00:00 5,6 -0,7 4 2 W 1031,7 19 0,0
16.01.2021 14:00:00 2,5 -0,8 5 3 WNW 1033,5 12 0,0
16.01.2021 13:00:00 0,2 -1,2 4 2 W 1035,1 - -
16.01.2021 12:00:00 -1,9 -2,5 4 2 W 1036,4 0,6 0,0
16.01.2021 11:00:00 -2,5 -3,3 2 1 W 1036,5 0,2 0,0
16.01.2021 10:00:00 -3,4 -3,7 2 1 ESE 1036,3 7 -
16.01.2021 09:00:00 -4,7 -5,5 0 0 N 1036,2 2,2 0,0
16.01.2021 08:00:00 -3,9 -4,9 2 1 NNW 1036,0 17 0,0
16.01.2021 07:00:00 -4,0 -5,0 4 2 SE 1035,6 17 -
16.01.2021 06:00:00 -3,4 -4,4 2 1 NW 1035,1 17 0,0
16.01.2021 05:00:00 -3,3 -4,1 4 2 SSE 1035,3 13 0,0
16.01.2021 04:00:00 -2,8 -3,9 2 1 E 1035,4 13 -
16.01.2021 03:00:00 -2,7 -3,2 2 1 N 1035,1 15 0,0
16.01.2021 02:00:00 -2,7 -3,7 2 1 E 1035,2 13 0,0
16.01.2021 01:00:00 -2,4 -3,2 2 1 SE 1035,1 10 -
16.01.2021 00:00:00 -1,9 -2,9 2 1 NNE 1035,0 16 0,0
15.01.2021 23:00:00 -1,2 -2,3 0 0 N 1034,6 15 0,0
15.01.2021 22:00:00 -0,7 -2,1 2 1 E 1034,1 15 -
15.01.2021 21:00:00 0,3 -1,6 2 1 ESE 1033,7 14 0,0
15.01.2021 20:00:00 1,5 -0,9 4 2 SE 1033,3 17 0,0
15.01.2021 19:00:00 4,1 0,2 2 1 E 1031,9 15 -
15.01.2021 18:00:00 7,5 1,3 2 1 WNW 1030,8 16 0,0
15.01.2021 17:00:00 8,1 1,5 2 1 S 1030,8 20 0,0
15.01.2021 16:00:00 7,0 1,1 4 2 NW 1031,1 20 -
15.01.2021 15:00:00 5,9 0,6 5 3 WNW 1031,7 17 0,0
15.01.2021 14:00:00 3,4 -0,3 4 2 W 1033,6 13 0,0
15.01.2021 13:00:00 0,1 -1,7 8 4 W 1035,3 1,5 -
15.01.2021 12:00:00 1,0 -1,4 5 3 W 1035,4 14 0,0
15.01.2021 11:00:00 -2,2 -3,3 8 4 SSW 1036,6 - 0,0
15.01.2021 10:00:00 -3,5 -4,5 5 3 ESE 1036,3 15 -
15.01.2021 09:00:00 -4,4 -5,4 2 1 ESE 1036,1 15 0,0
15.01.2021 08:00:00 -4,1 -5,1 2 1 E 1035,8 19 0,0
15.01.2021 07:00:00 -3,7 -4,5 4 2 NW 1035,3 18 -
15.01.2021 06:00:00 -3,6 -4,7 2 1 SE 1035,5 16 0,0
15.01.2021 05:00:00 -3,5 -4,2 2 1 SE 1035,8 18 0,0
15.01.2021 04:00:00 -3,4 -4,5 4 2 E 1035,6 15 -
15.01.2021 03:00:00 -2,5 -3,6 4 2 N 1035,3 18 0,0
15.01.2021 02:00:00 -2,4 -3,8 2 1 ESE 1035,3 19 0,0
15.01.2021 01:00:00 -1,8 -3,4 2 1 NE 1035,1 17 -
15.01.2021 00:00:00 -1,9 -3,6 4 2 E 1035,1 20 0,0
14.01.2021 23:00:00 -1,4 -3,6 2 1 N 1034,6 18 0,0
14.01.2021 22:00:00 -0,7 -3,2 2 1 SSW 1034,2 19 -
14.01.2021 21:00:00 0,0 -3,0 2 1 SSE 1033,8 18 0,0
14.01.2021 20:00:00 0,9 -3,2 2 1 ENE 1033,3 19 0,0
14.01.2021 19:00:00 2,7 -2,6 4 2 E 1032,6 19 -
14.01.2021 18:00:00 6,0 -2,6 2 1 WNW 1031,8 20 0,0
14.01.2021 17:00:00 6,8 -2,4 4 2 NW 1031,5 20 0,0
14.01.2021 16:00:00 6,0 -2,6 4 2 W 1031,5 20 -
14.01.2021 15:00:00 6,2 -2,2 4 2 NNW 1031,8 20 0,0
14.01.2021 14:00:00 3,9 -2,7 4 2 NW 1033,2 20 0,0

tt = temperature
td = dewpoint
ff = wind speed
dd = wind direction
ppp = reduced air pressure
vv = visibility
rr = precipitation

Next stations